"Pseudo-MPEC" for P11CrpF

Created 2022 Dec 22 19:22:17 UT using Find_Orb

Click here for an explanation of pseudo-MPECs

 
 Astrometry: 
     P11CrpF* C2022 12 02HO6uV/`iPs!7oeo1^Pi,lAstrometry+TRE\mOLBV(+pq[CMbZB'F51
     P11CrpF  C2022 12 02PSe*].7O9EGredacted;EjG[7w.Y-6eWbFib5ei?sTIVc:`V_-V)F51
     P11CrpF  C2022 12 02/7t,yTmjsJclick,?$u\9`KXYhereZ\jwvP-67csFUn,Tyxu#*n\F51
     P11CrpF  C2022 12 02%PO@VbSforjDCgtstde8^1m,!.q]O^Qe\:^8explanationV7([IF51

Station data:
(F51) Pan-STARRS 1, Haleakala  (N20.707234 W156.255910)  US/Hawaii.
   Observers J. Bulger, T. Lowe, A. Schultz, M. Willman. Measurers K.
   Chambers, S. Chastel, T. de Boer, L. Denneau, J. Fairlamb, H. Flewelling,
   M. Huber, C.-C. Lin, E. Magnier, Y. Ramanjooloo, R. Wainscoat, R. Weryk.
   1.8-m Ritchey-Chrétien + CCD.

Orbital elements:  P11CrpF
   Perihelion 2022 Jul 9.72840 +/- 121 TT = 17:28:53 (JD 2459770.22840)
Epoch 2022 Dec  3.0 TT = JDT 2459916.5   Earth MOID: 0.5035      AutoNEOCP
M  43.88734491 +/- 90               (J2000 ecliptic)
n   0.30004009 +/- 0.504            Peri.   76.30221 +/- 90
a   2.20978414 +/- 2.47             Node   305.62380 +/- 23
e   0.3982969 +/- 0.242             Incl.   23.46277 +/- 42
P   3.28                   H 18.95  G  0.15   U 12.3  SR
q 1.32963393 +/- 0.888    Q 3.08993434 +/- 33.4
From 4 observations 2022 Dec. 2 (63.0 min); mean residual 0".06
Residuals in arcseconds: 
221202 F51  .02+  .08+    221202 F51  .04-  .05-    
221202 F51  .00   .09-    221202 F51  .03+  .07+    

Ephemerides (geocentric):
Date (UTC) HH   RA             Dec           delta  r     elong  mag " sig PA
---- --------  ------------   ------------  ------ ------ -----  --- --------
2022 12 22 19  09 41 33.384   +19 46 36.58  1.1507 1.9299 129.3 21.8  66d 164
2022 12 22 20  09 41 31.182   +19 46 15.27  1.1505 1.9301 129.3 21.8  66d 164
2022 12 22 21  09 41 28.976   +19 45 53.96  1.1503 1.9303 129.4 21.8  66d 164
2022 12 22 22  09 41 26.765   +19 45 32.66  1.1501 1.9306 129.4 21.8  66d 164
2022 12 22 23  09 41 24.548   +19 45 11.37  1.1499 1.9308 129.5 21.8  66d 164
2022 12 23 00  09 41 22.327   +19 44 50.09  1.1497 1.9310 129.5 21.8  66d 164
2022 12 23 01  09 41 20.101   +19 44 28.81  1.1495 1.9312 129.6 21.8  66d 164
2022 12 23 02  09 41 17.869   +19 44 07.54  1.1493 1.9314 129.6 21.8  66d 165
2022 12 23 03  09 41 15.633   +19 43 46.28  1.1491 1.9316 129.7 21.8  66d 165
2022 12 23 04  09 41 13.392   +19 43 25.03  1.1490 1.9318 129.7 21.8  66d 165
2022 12 23 05  09 41 11.145   +19 43 03.78  1.1488 1.9320 129.8 21.8  66d 165
2022 12 23 06  09 41 08.894   +19 42 42.54  1.1486 1.9322 129.8 21.8  66d 165
2022 12 23 07  09 41 06.638   +19 42 21.31  1.1484 1.9324 129.9 21.8  66d 165
2022 12 23 08  09 41 04.377   +19 42 00.08  1.1482 1.9326 129.9 21.8  66d 165
2022 12 23 09  09 41 02.111   +19 41 38.86  1.1480 1.9328 130.0 21.8  66d 165
2022 12 23 10  09 40 59.840   +19 41 17.65  1.1478 1.9331 130.0 21.8  66d 165
2022 12 23 11  09 40 57.564   +19 40 56.45  1.1476 1.9333 130.0 21.8  66d 165
2022 12 23 12  09 40 55.283   +19 40 35.25  1.1474 1.9335 130.1 21.8  66d 165
2022 12 23 13  09 40 52.997   +19 40 14.07  1.1472 1.9337 130.1 21.8  66d 165
2022 12 23 14  09 40 50.706   +19 39 52.88  1.1471 1.9339 130.2 21.8  66d 165
2022 12 23 15  09 40 48.410   +19 39 31.71  1.1469 1.9341 130.2 21.8  66d 165
2022 12 23 16  09 40 46.109   +19 39 10.54  1.1467 1.9343 130.3 21.8  66d 165
2022 12 23 17  09 40 43.804   +19 38 49.38  1.1465 1.9345 130.3 21.8  66d 165
2022 12 23 18  09 40 41.493   +19 38 28.23  1.1463 1.9347 130.4 21.8  66d 165
2022 12 23 19  09 40 39.177   +19 38 07.09  1.1461 1.9349 130.4 21.8  66d 165
2022 12 23 20  09 40 36.857   +19 37 45.95  1.1459 1.9351 130.5 21.8  66d 165
2022 12 23 21  09 40 34.531   +19 37 24.82  1.1457 1.9353 130.5 21.8  66d 165
2022 12 23 22  09 40 32.201   +19 37 03.69  1.1456 1.9356 130.6 21.8  66d 165
2022 12 23 23  09 40 29.865   +19 36 42.58  1.1454 1.9358 130.6 21.8  66d 165
2022 12 24 00  09 40 27.525   +19 36 21.47  1.1452 1.9360 130.7 21.8  66d 165
2022 12 24 01  09 40 25.180   +19 36 00.37  1.1450 1.9362 130.7 21.8  66d 165
2022 12 24 02  09 40 22.829   +19 35 39.27  1.1448 1.9364 130.8 21.8  66d 165
2022 12 24 03  09 40 20.474   +19 35 18.19  1.1446 1.9366 130.8 21.8  66d 165
2022 12 24 04  09 40 18.114   +19 34 57.10  1.1445 1.9368 130.9 21.8  66d 164
2022 12 24 05  09 40 15.749   +19 34 36.03  1.1443 1.9370 130.9 21.8  66d 164
2022 12 24 06  09 40 13.379   +19 34 14.97  1.1441 1.9372 131.0 21.8  66d 164
2022 12 24 07  09 40 11.005   +19 33 53.91  1.1439 1.9374 131.0 21.8  66d 164
2022 12 24 08  09 40 08.625   +19 33 32.85  1.1437 1.9376 131.1 21.8  66d 164
2022 12 24 09  09 40 06.240   +19 33 11.81  1.1435 1.9378 131.1 21.8  66d 164
2022 12 24 10  09 40 03.851   +19 32 50.77  1.1433 1.9381 131.2 21.8  66d 164
2022 12 24 11  09 40 01.456   +19 32 29.74  1.1432 1.9383 131.2 21.8  66d 164
2022 12 24 12  09 39 59.057   +19 32 08.72  1.1430 1.9385 131.3 21.8  66d 164
2022 12 24 13  09 39 56.653   +19 31 47.70  1.1428 1.9387 131.3 21.8  66d 164
2022 12 24 14  09 39 54.244   +19 31 26.69  1.1426 1.9389 131.4 21.8  66d 164
2022 12 24 15  09 39 51.830   +19 31 05.69  1.1424 1.9391 131.4 21.8  66d 164
2022 12 24 16  09 39 49.411   +19 30 44.69  1.1423 1.9393 131.5 21.8  66d 164
2022 12 24 17  09 39 46.987   +19 30 23.70  1.1421 1.9395 131.5 21.8  66d 164
2022 12 24 18  09 39 44.558   +19 30 02.72  1.1419 1.9397 131.6 21.8  67d 164